Tracking 19181 objects as of 17-Jun-2018
HD Live streaming from Space Station
objects crossing your sky now

FENGYUN 1C DEB

Track FENGYUN 1C DEB now!
10-day predictions


NORAD ID: 31920
Int'l Code: 1999-025CLX
Perigee: 505.1 km
Apogee: 747.4 km
Inclination: 98.8 °
Period: 97.1 minutes
Semi major axis: 6997 km
RCS: 0.0161 m2 (small)
Launch date: May 10, 1999
Source: People's Republic of China (PRC)
Launch site: Taiyaun Space Center, China (TSC)

Note: This is SATELLITE DEBRIS
aabbcc
Your satellite tracking list
Your tracking list is empty




NASA's NSSDC Master Catalog

Two Line Element Set (TLE):
1 31920U 99025CLX 18168.21431749 +.00000506 +00000-0 +55545-4 0  9994
2 31920 098.8291 174.9941 0173159 280.8134 077.3630 14.83242685592725
Source of the keplerian elements: AFSPC